Weather History for Provincetown, MA

Change the Weather History Date:

Tuesday, March 26, 2013

  Actual Average Record
Temperature  
Mean Temperature 40 °F -  
Max Temperature 44 °F 44 °F 68 °F (1952)
Min Temperature 35 °F 33 °F 28 °F (2005)
Degree Days  
Heating Degree Days 26    
Moisture  
Dew Point 28 °F    
Average Humidity 64    
Maximum Humidity 87    
Minimum Humidity 37    
Precipitation  
Precipitation 0.00 in - - ()
Sea Level Pressure  
Sea Level Pressure 29.64 in    
Wind  
Wind Speed 17 mph (NNW)    
Max Wind Speed 29 mph    
Max Gust Speed 37 mph    
Visibility 10 miles    
Events      
Averages and records for this station are not official NWS values.
T = Trace of Precipitation, MM = Missing Value Source: NWS Daily Summary

Daily Weather History Graph

Daily Weather History Graph

Search for Another Location

Airport:

Trip Planner

Search our weather history database for the weather conditions in past years. The results will help you decide how hot, cold, wet, or windy it might be!

Date:

Astronomy

Mar. 26, 2013 Rise Set
Actual Time 6:33 AM EDT 7:00 PM EDT
Civil Twilight 6:05 AM EDT 7:28 PM EDT
Nautical Twilight 5:32 AM EDT 8:01 PM EDT
Astronomical Twilight 4:58 AM EDT 8:35 PM EDT
Moon 6:33 PM EDT (3/26) 5:48 AM EDT (3/26)
Length of Visible Light 13h 22m
Length of Day
12h 26m
Waxing Gibbous, 99% of the Moon is Illuminated
Mar 26
Waxing Gibbous
Mar 27
Full
Apr 3
Last Quarter
Apr 10
New
Apr 18
First Quarter

Hourly Weather History & Observations

Time (EDT) Temp. Windchill Dew Point Humidity Pressure Visibility Wind Dir Wind Speed Gust Speed Precip Events Conditions
12:15 AM 39.2 °F 29.3 °F 32.0 °F 75% 29.48 in 10.0 mi NE 20.7 mph 31.1 mph N/A   Mostly Cloudy
12:35 AM 39.2 °F 28.7 °F 33.8 °F 81% 29.48 in 10.0 mi NE 23.0 mph 29.9 mph N/A   Overcast
12:55 AM 39.2 °F 28.7 °F 30.2 °F 70% 29.48 in 10.0 mi NE 23.0 mph 31.1 mph N/A   Overcast
1:15 AM 39.2 °F 28.7 °F 30.2 °F 70% 29.48 in 10.0 mi NE 23.0 mph 33.4 mph N/A   Mostly Cloudy
1:35 AM 39.2 °F 29.6 °F 30.2 °F 70% 29.49 in 10.0 mi NE 19.6 mph 31.1 mph N/A   Mostly Cloudy
2:15 AM 39.2 °F 29.8 °F 28.4 °F 65% 29.49 in 10.0 mi NE 18.4 mph 29.9 mph N/A   Overcast
2:35 AM 39.2 °F 29.0 °F 28.4 °F 65% 29.49 in 10.0 mi NE 21.9 mph 29.9 mph N/A   Overcast
2:55 AM 37.4 °F 26.9 °F 28.4 °F 70% 29.50 in 10.0 mi NNE 20.7 mph 27.6 mph N/A   Overcast
3:15 AM 37.4 °F 25.2 °F 32.0 °F 81% 29.52 in 10.0 mi NNE 28.8 mph 36.8 mph N/A   Overcast
3:35 AM 35.6 °F 24.8 °F 32.0 °F 87% 29.51 in 10.0 mi NNE 19.6 mph 26.5 mph N/A   Mostly Cloudy
3:55 AM 37.4 °F 26.4 °F 30.2 °F 75% 29.52 in 10.0 mi North 23.0 mph 29.9 mph N/A   Mostly Cloudy
4:35 AM 37.4 °F 27.8 °F 30.2 °F 75% 29.52 in 10.0 mi NNE 17.3 mph 28.8 mph N/A   Overcast
4:55 AM 37.4 °F 27.2 °F 28.4 °F 70% 29.53 in 10.0 mi North 19.6 mph 27.6 mph N/A   Overcast
5:15 AM 37.4 °F 27.5 °F 26.6 °F 65% 29.53 in 10.0 mi NNE 18.4 mph 29.9 mph N/A   Mostly Cloudy
5:35 AM 37.4 °F 26.1 °F 28.4 °F 70% 29.54 in 10.0 mi North 24.2 mph 29.9 mph N/A   Overcast
5:55 AM 37.4 °F 26.4 °F 28.4 °F 70% 29.55 in 10.0 mi North 23.0 mph 27.6 mph N/A   Scattered Clouds
6:15 AM 37.4 °F 26.9 °F 28.4 °F 70% 29.56 in 10.0 mi North 20.7 mph 29.9 mph N/A   Clear
6:35 AM 37.4 °F 27.8 °F 26.6 °F 65% 29.57 in 10.0 mi North 17.3 mph 27.6 mph N/A   Clear
6:55 AM 37.4 °F 27.8 °F 26.6 °F 65% 29.58 in 10.0 mi North 17.3 mph 27.6 mph N/A   Partly Cloudy
7:15 AM 37.4 °F 26.9 °F 26.6 °F 65% 29.59 in 10.0 mi North 20.7 mph 28.8 mph N/A   Scattered Clouds
7:35 AM 37.4 °F 26.6 °F 24.8 °F 60% 29.60 in 10.0 mi NNE 21.9 mph 31.1 mph N/A   Mostly Cloudy
7:55 AM 37.4 °F 26.6 °F 26.6 °F 65% 29.61 in 10.0 mi North 21.9 mph 28.8 mph N/A   Mostly Cloudy
8:15 AM 37.4 °F 27.2 °F 24.8 °F 60% 29.61 in 10.0 mi North 19.6 mph 25.3 mph N/A   Mostly Cloudy
8:35 AM 37.4 °F 27.2 °F 23.0 °F 56% 29.62 in 10.0 mi North 19.6 mph 26.5 mph N/A   Scattered Clouds
8:55 AM 37.4 °F 27.8 °F 26.6 °F 65% 29.63 in 10.0 mi North 17.3 mph 27.6 mph N/A   Mostly Cloudy
9:35 AM 37.4 °F 27.8 °F 26.6 °F 65% 29.64 in 10.0 mi NNW 17.3 mph 26.5 mph N/A   Mostly Cloudy
9:55 AM 37.4 °F 27.5 °F 26.6 °F 65% 29.65 in 10.0 mi North 18.4 mph 26.5 mph N/A   Mostly Cloudy
10:15 AM 39.2 °F 29.6 °F 28.4 °F 65% 29.66 in 10.0 mi North 19.6 mph 23.0 mph N/A   Mostly Cloudy
10:35 AM 39.2 °F 31.2 °F 26.6 °F 61% 29.66 in 10.0 mi North 13.8 mph 24.2 mph N/A   Mostly Cloudy
10:55 AM 39.2 °F 30.2 °F 26.6 °F 61% 29.67 in 10.0 mi North 17.3 mph 21.9 mph N/A   Overcast
11:15 AM 39.2 °F 30.5 °F 26.6 °F 61% 29.68 in 10.0 mi North 16.1 mph 23.0 mph N/A   Mostly Cloudy
11:55 AM 41.0 °F 33.5 °F 26.6 °F 57% 29.69 in 10.0 mi North 13.8 mph 23.0 mph N/A   Clear
12:15 PM 41.0 °F 32.8 °F 26.6 °F 57% 29.69 in 10.0 mi North 16.1 mph 20.7 mph N/A   Clear
12:35 PM 41.0 °F 33.1 °F 26.6 °F 57% 29.69 in 10.0 mi NNW 15.0 mph 20.7 mph N/A   Clear
12:55 PM 42.8 °F 35.8 °F 26.6 °F 53% 29.69 in 10.0 mi NNW 13.8 mph 20.7 mph N/A   Clear
1:15 PM 42.8 °F 35.8 °F 26.6 °F 53% 29.69 in 10.0 mi NNW 13.8 mph - N/A   Clear
1:35 PM 42.8 °F 36.6 °F 24.8 °F 49% 29.69 in 10.0 mi NNW 11.5 mph - N/A   Clear
1:55 PM 42.8 °F 37.0 °F 26.6 °F 53% 29.69 in 10.0 mi NNW 10.4 mph - N/A   Clear
2:15 PM 42.8 °F 37.5 °F 24.8 °F 49% 29.69 in 10.0 mi NW 9.2 mph - N/A   Clear
2:35 PM 42.8 °F 38.0 °F 26.6 °F 53% 29.69 in 10.0 mi WNW 8.1 mph - N/A   Clear
3:15 PM 42.8 °F 38.6 °F 24.8 °F 49% 29.69 in 10.0 mi WNW 6.9 mph - N/A   Clear
3:35 PM 42.8 °F 39.3 °F 24.8 °F 49% 29.69 in 10.0 mi WNW 5.8 mph - N/A   Clear
3:55 PM 42.8 °F 38.6 °F 24.8 °F 49% 29.69 in 10.0 mi NW 6.9 mph - N/A   Clear
4:15 PM 42.8 °F 40.1 °F 24.8 °F 49% 29.69 in 10.0 mi NW 4.6 mph - N/A   Clear
4:35 PM 42.8 °F 39.3 °F 23.0 °F 46% 29.70 in 10.0 mi WNW 5.8 mph - N/A   Clear
4:55 PM 42.8 °F 40.1 °F 23.0 °F 46% 29.70 in 10.0 mi NW 4.6 mph - N/A   Clear
5:15 PM 42.8 °F 39.3 °F 21.2 °F 42% 29.70 in 10.0 mi West 5.8 mph - N/A   Clear
5:35 PM 44.6 °F 43.1 °F 21.2 °F 39% 29.71 in 10.0 mi North 3.5 mph - N/A   Clear
6:15 PM 44.6 °F - 19.4 °F 37% 29.72 in 10.0 mi Calm Calm - N/A   Clear
6:35 PM 42.8 °F 39.3 °F 26.6 °F 53% 29.72 in 10.0 mi SW 5.8 mph - N/A   Clear
6:55 PM 39.2 °F 35.9 °F 26.6 °F 61% 29.73 in 10.0 mi SSW 4.6 mph - N/A   Clear
7:15 PM 37.4 °F 32.8 °F 30.2 °F 75% 29.73 in 10.0 mi SSW 5.8 mph - N/A   Clear
7:35 PM 37.4 °F 32.8 °F 32.0 °F 81% 29.74 in 10.0 mi SSW 5.8 mph - N/A   Clear
7:55 PM 37.4 °F 32.1 °F 32.0 °F 81% 29.75 in 10.0 mi SSW 6.9 mph - N/A   Partly Cloudy
8:35 PM 39.2 °F 33.0 °F 32.0 °F 75% 29.75 in 10.0 mi SSW 9.2 mph - N/A   Overcast
8:55 PM 39.2 °F 34.2 °F 33.8 °F 81% 29.75 in 10.0 mi SSW 6.9 mph - N/A   Overcast
9:15 PM 39.2 °F 33.6 °F 33.8 °F 81% 29.75 in 10.0 mi SSW 8.1 mph - N/A   Mostly Cloudy
9:35 PM 39.2 °F 33.6 °F 33.8 °F 81% 29.76 in 10.0 mi SW 8.1 mph - N/A   Scattered Clouds
9:55 PM 39.2 °F 32.5 °F 33.8 °F 81% 29.75 in 10.0 mi SW 10.4 mph - N/A   Partly Cloudy
10:15 PM 39.2 °F 32.5 °F 32.0 °F 75% 29.76 in 10.0 mi WSW 10.4 mph - N/A   Partly Cloudy
10:35 PM 39.2 °F 32.0 °F 30.2 °F 70% 29.76 in 10.0 mi WSW 11.5 mph - N/A   Clear
10:55 PM 39.2 °F 32.0 °F 30.2 °F 70% 29.75 in 10.0 mi West 11.5 mph - N/A   Clear
11:15 PM 39.2 °F 32.0 °F 30.2 °F 70% 29.76 in 10.0 mi West 11.5 mph - N/A   Clear
11:35 PM 39.2 °F 31.6 °F 28.4 °F 65% 29.76 in 10.0 mi West 12.7 mph - N/A   Clear
11:55 PM 41.0 °F 33.1 °F 30.2 °F 65% 29.76 in 10.0 mi WNW 15.0 mph 18.4 mph N/A   Clear